Back to catalog

THORAD DELTA 1 DEB

AliveLEO
NORAD 8141·DEBRIS·🇺🇸 United States

Launched Nov 15, 1974 from Vandenberg Space Force Base

Loading…

Next Passes (next 24 hours)

TLE

FreshSource: Space-Track

Epoch: Sep 14, 2026, 10:04 UTC

1 08141U 74089K   26257.41973405  .00000005  00000-0  35420-3 0  9999
2 08141 101.3967  63.5129 0089660 260.3689 125.8827 12.36380679338497

Track THORAD DELTA 1 DEB in real time with AllMySat

Download on the App Store